Time,TemperatureF,DewpointF,PressureIn,WindDirection,WindDirectionDegrees,WindSpeedMPH,WindSpeedGustMPH,Humidity,HourlyPrecipIn,Conditions,Clouds,dailyrainin,SoftwareType,DateUTC
2013-03-29 00:00:00,36.3,22.5,30.26,North,0,3.6,6.5,57,0.00,,,0.00,WUHU21623XXSP,2013-03-29 04:00:00,
2013-03-29 00:05:00,36.3,22.5,30.27,North,0,1.3,6.5,57,0.00,,,0.00,WUHU21623XXSP,2013-03-29 04:05:00,
2013-03-29 00:10:00,36.3,22.5,30.26,SSW,202,0.0,1.3,57,0.00,,,0.00,WUHU21623XXSP,2013-03-29 04:10:00,
2013-03-29 00:15:00,36.3,22.5,30.27,North,0,4.9,4.9,57,0.00,,,0.00,WUHU21623XXSP,2013-03-29 04:15:00,
2013-03-29 00:20:00,36.3,22.5,30.26,SSW,202,3.4,4.9,57,0.00,,,0.00,WUHU21623XXSP,2013-03-29 04:20:00,
2013-03-29 00:25:00,36.3,22.5,30.26,SSW,202,0.0,3.4,57,0.00,,,0.00,WUHU21623XXSP,2013-03-29 04:25:00,
2013-03-29 00:30:00,36.1,22.4,30.26,SSW,202,0.0,0.0,57,0.00,,,0.00,WUHU21623XXSP,2013-03-29 04:30:00,
2013-03-29 00:35:00,36.1,22.4,30.27,North,0,0.0,0.0,57,0.00,,,0.00,WUHU21623XXSP,2013-03-29 04:35:00,
2013-03-29 00:40:00,36.0,22.2,30.26,North,0,0.0,0.0,57,0.00,,,0.00,WUHU21623XXSP,2013-03-29 04:40:00,
2013-03-29 00:45:00,35.8,22.0,30.27,SW,225,0.0,0.0,57,0.00,,,0.00,WUHU21623XXSP,2013-03-29 04:45:00,
2013-03-29 00:50:00,35.8,22.0,30.27,SSW,202,0.0,0.0,57,0.00,,,0.00,WUHU21623XXSP,2013-03-29 04:50:00,
2013-03-29 00:55:00,35.6,21.9,30.27,SW,225,0.0,0.0,57,0.00,,,0.00,WUHU21623XXSP,2013-03-29 04:55:00,
2013-03-29 01:00:00,35.4,22.1,30.27,North,0,0.0,0.0,58,0.00,,,0.00,WUHU21623XXSP,2013-03-29 05:00:00,
2013-03-29 01:05:00,35.4,22.1,30.27,North,0,0.0,0.0,58,0.00,,,0.00,WUHU21623XXSP,2013-03-29 05:05:00,
2013-03-29 01:10:00,35.2,22.0,30.27,SW,225,0.0,0.0,58,0.00,,,0.00,WUHU21623XXSP,2013-03-29 05:10:00,
2013-03-29 01:15:00,34.9,21.6,30.27,SSW,202,0.0,0.0,58,0.00,,,0.00,WUHU21623XXSP,2013-03-29 05:15:00,
2013-03-29 01:20:00,34.9,21.6,30.27,SSW,202,0.0,0.0,58,0.00,,,0.00,WUHU21623XXSP,2013-03-29 05:20:00,
2013-03-29 01:25:00,34.9,21.6,30.27,SSW,202,0.0,0.0,59,0.00,,,0.00,WUHU21623XXSP,2013-03-29 05:25:00,
2013-03-29 01:30:00,34.7,21.8,30.27,SSW,202,0.0,2.9,59,0.00,,,0.00,WUHU21623XXSP,2013-03-29 05:30:00,
2013-03-29 01:35:00,34.5,21.7,30.27,SSW,202,0.0,2.9,59,0.00,,,0.00,WUHU21623XXSP,2013-03-29 05:35:00,
2013-03-29 01:40:00,34.3,21.5,30.27,SSW,202,0.0,0.0,59,0.00,,,0.00,WUHU21623XXSP,2013-03-29 05:40:00,
2013-03-29 01:45:00,34.3,21.5,30.27,SW,225,3.6,3.6,59,0.00,,,0.00,WUHU21623XXSP,2013-03-29 05:45:00,
2013-03-29 01:50:00,34.3,21.9,30.27,SSW,202,0.0,3.6,60,0.00,,,0.00,WUHU21623XXSP,2013-03-29 05:50:00,
2013-03-29 01:55:00,34.2,21.3,30.27,SSW,202,0.0,0.0,59,0.00,,,0.00,WUHU21623XXSP,2013-03-29 05:55:00,
2013-03-29 02:00:00,33.8,20.9,30.27,North,0,0.0,0.0,59,0.00,,,0.00,WUHU21623XXSP,2013-03-29 06:00:00,
2013-03-29 02:05:00,33.6,20.9,30.27,North,0,0.0,0.0,59,0.00,,,0.00,WUHU21623XXSP,2013-03-29 06:05:00,
2013-03-29 02:10:00,33.6,21.2,30.27,North,0,0.0,0.0,60,0.00,,,0.00,WUHU21623XXSP,2013-03-29 06:10:00,
2013-03-29 02:15:00,33.4,21.1,30.27,SSW,202,0.0,0.0,60,0.00,,,0.00,WUHU21623XXSP,2013-03-29 06:15:00,
2013-03-29 02:20:00,33.4,21.1,30.27,SSW,202,2.2,2.2,60,0.00,,,0.00,WUHU21623XXSP,2013-03-29 06:20:00,
2013-03-29 02:25:00,33.1,20.7,30.27,SW,225,0.0,2.2,60,0.00,,,0.00,WUHU21623XXSP,2013-03-29 06:25:00,
2013-03-29 02:30:00,32.9,20.9,30.27,SW,225,0.0,0.0,61,0.00,,,0.00,WUHU21623XXSP,2013-03-29 06:30:00,
2013-03-29 02:35:00,32.9,20.9,30.27,SW,225,0.0,0.0,61,0.00,,,0.00,WUHU21623XXSP,2013-03-29 06:35:00,
2013-03-29 02:40:00,32.7,20.8,30.27,SW,225,0.0,0.0,61,0.00,,,0.00,WUHU21623XXSP,2013-03-29 06:40:00,
2013-03-29 02:45:00,32.5,20.6,30.27,SSW,202,0.0,0.0,61,0.00,,,0.00,WUHU21623XXSP,2013-03-29 06:45:00,
2013-03-29 02:50:00,32.4,20.8,30.27,SSW,202,0.0,0.0,62,0.00,,,0.00,WUHU21623XXSP,2013-03-29 06:50:00,
2013-03-29 02:55:00,32.2,20.6,30.27,SSW,202,0.0,0.0,62,0.00,,,0.00,WUHU21623XXSP,2013-03-29 06:55:00,
2013-03-29 03:00:00,32.2,20.6,30.27,SW,225,0.0,0.0,62,0.00,,,0.00,WUHU21623XXSP,2013-03-29 07:00:00,
2013-03-29 03:05:00,31.8,20.3,30.27,SW,225,0.0,0.0,62,0.00,,,0.00,WUHU21623XXSP,2013-03-29 07:05:00,
2013-03-29 03:10:00,31.8,20.3,30.27,SW,225,0.0,0.0,62,0.00,,,0.00,WUHU21623XXSP,2013-03-29 07:10:00,
2013-03-29 03:15:00,31.8,20.3,30.27,SSW,202,0.0,0.0,62,0.00,,,0.00,WUHU21623XXSP,2013-03-29 07:15:00,
2013-03-29 03:20:00,31.6,20.5,30.27,SSW,202,0.0,0.0,63,0.00,,,0.00,WUHU21623XXSP,2013-03-29 07:20:00,
2013-03-29 03:25:00,31.6,20.5,30.27,SSW,202,0.0,0.0,63,0.00,,,0.00,WUHU21623XXSP,2013-03-29 07:25:00,
2013-03-29 03:30:00,31.5,20.3,30.27,SSW,202,0.0,0.0,63,0.00,,,0.00,WUHU21623XXSP,2013-03-29 07:30:00,
2013-03-29 03:35:00,31.3,20.1,30.27,SSW,202,1.3,1.3,63,0.00,,,0.00,WUHU21623XXSP,2013-03-29 07:35:00,
2013-03-29 03:40:00,31.3,20.1,30.27,SW,225,0.0,1.3,63,0.00,,,0.00,WUHU21623XXSP,2013-03-29 07:40:00,
2013-03-29 03:45:00,31.1,20.1,30.27,SSW,202,0.0,0.0,63,0.00,,,0.00,WUHU21623XXSP,2013-03-29 07:45:00,
2013-03-29 03:50:00,31.1,19.9,30.26,SSW,202,0.0,0.0,63,0.00,,,0.00,WUHU21623XXSP,2013-03-29 07:50:00,
2013-03-29 03:55:00,30.9,19.9,30.26,SSW,202,0.0,0.0,64,0.00,,,0.00,WUHU21623XXSP,2013-03-29 07:55:00,
2013-03-29 04:00:00,30.9,20.1,30.27,SW,225,0.0,0.0,64,0.00,,,0.00,WUHU21623XXSP,2013-03-29 08:00:00,
2013-03-29 04:05:00,30.9,20.1,30.26,SW,225,0.0,0.0,64,0.00,,,0.00,WUHU21623XXSP,2013-03-29 08:05:00,
2013-03-29 04:10:00,30.7,19.9,30.26,SW,225,0.0,0.0,64,0.00,,,0.00,WUHU21623XXSP,2013-03-29 08:10:00,
2013-03-29 04:15:00,30.7,19.9,30.26,SW,225,0.7,0.7,64,0.00,,,0.00,WUHU21623XXSP,2013-03-29 08:15:00,
2013-03-29 04:20:00,30.7,19.9,30.26,SW,225,0.0,0.7,64,0.00,,,0.00,WUHU21623XXSP,2013-03-29 08:20:00,
2013-03-29 04:25:00,30.7,19.9,30.26,SW,225,2.2,2.2,64,0.00,,,0.00,WUHU21623XXSP,2013-03-29 08:25:00,
2013-03-29 04:30:00,30.6,20.1,30.26,SW,225,0.0,2.2,65,0.00,,,0.00,WUHU21623XXSP,2013-03-29 08:30:00,
2013-03-29 04:35:00,30.6,20.1,30.27,SW,225,0.0,0.0,65,0.00,,,0.00,WUHU21623XXSP,2013-03-29 08:35:00,
2013-03-29 04:40:00,30.6,20.1,30.27,SW,225,0.0,0.0,65,0.00,,,0.00,WUHU21623XXSP,2013-03-29 08:40:00,
2013-03-29 04:45:00,30.6,20.1,30.27,SSW,202,2.7,2.7,65,0.00,,,0.00,WUHU21623XXSP,2013-03-29 08:45:00,
2013-03-29 04:50:00,30.4,19.9,30.27,SW,225,0.0,2.7,65,0.00,,,0.00,WUHU21623XXSP,2013-03-29 08:50:00,
2013-03-29 04:55:00,30.4,19.9,30.26,SW,225,2.7,2.7,65,0.00,,,0.00,WUHU21623XXSP,2013-03-29 08:55:00,
2013-03-29 05:00:00,30.4,19.9,30.26,SW,225,0.0,2.7,65,0.00,,,0.00,WUHU21623XXSP,2013-03-29 09:00:00,
2013-03-29 05:05:00,30.4,19.9,30.27,SW,225,0.0,2.0,65,0.00,,,0.00,WUHU21623XXSP,2013-03-29 09:05:00,
2013-03-29 05:10:00,30.4,19.9,30.27,SW,225,0.0,2.0,65,0.00,,,0.00,WUHU21623XXSP,2013-03-29 09:10:00,
2013-03-29 05:15:00,30.2,20.1,30.27,SW,225,0.0,2.5,66,0.00,,,0.00,WUHU21623XXSP,2013-03-29 09:15:00,
2013-03-29 05:20:00,30.2,20.1,30.27,SSW,202,0.0,2.5,66,0.00,,,0.00,WUHU21623XXSP,2013-03-29 09:20:00,
2013-03-29 05:25:00,30.2,20.1,30.27,SW,225,0.0,0.0,66,0.00,,,0.00,WUHU21623XXSP,2013-03-29 09:25:00,
2013-03-29 05:30:00,30.0,20.0,30.27,SW,225,0.0,0.0,66,0.00,,,0.00,WUHU21623XXSP,2013-03-29 09:30:00,
2013-03-29 05:35:00,30.0,20.0,30.27,SSW,202,0.0,0.0,66,0.00,,,0.00,WUHU21623XXSP,2013-03-29 09:35:00,
2013-03-29 05:40:00,30.0,20.0,30.27,SW,225,0.0,0.0,66,0.00,,,0.00,WUHU21623XXSP,2013-03-29 09:40:00,
2013-03-29 05:45:00,30.0,20.0,30.27,SW,225,0.0,0.0,66,0.00,,,0.00,WUHU21623XXSP,2013-03-29 09:45:00,
2013-03-29 05:50:00,29.8,19.8,30.26,SSW,202,0.0,0.0,66,0.00,,,0.00,WUHU21623XXSP,2013-03-29 09:50:00,
2013-03-29 05:55:00,29.8,19.8,30.26,SSW,202,0.0,0.0,66,0.00,,,0.00,WUHU21623XXSP,2013-03-29 09:55:00,
2013-03-29 06:00:00,29.8,19.8,30.26,SSW,202,0.0,2.7,66,0.00,,,0.00,WUHU21623XXSP,2013-03-29 10:00:00,
2013-03-29 06:05:00,29.7,19.6,30.26,SSW,202,4.5,4.5,66,0.00,,,0.00,WUHU21623XXSP,2013-03-29 10:05:00,
2013-03-29 06:10:00,29.7,19.6,30.26,SW,225,0.0,4.5,66,0.00,,,0.00,WUHU21623XXSP,2013-03-29 10:10:00,
2013-03-29 06:15:00,29.5,19.5,30.26,SW,225,0.0,1.8,66,0.00,,,0.00,WUHU21623XXSP,2013-03-29 10:15:00,
2013-03-29 06:20:00,29.3,19.3,30.26,SW,225,3.1,4.0,66,0.00,,,0.00,WUHU21623XXSP,2013-03-29 10:20:00,
2013-03-29 06:25:00,29.3,19.3,30.26,SW,225,0.0,4.0,66,0.00,,,0.00,WUHU21623XXSP,2013-03-29 10:25:00,
2013-03-29 06:30:00,29.1,19.1,30.26,SSW,202,0.0,2.0,66,0.00,,,0.00,WUHU21623XXSP,2013-03-29 10:30:00,
2013-03-29 06:35:00,29.1,19.1,30.26,SW,225,0.0,0.0,66,0.00,,,0.00,WUHU21623XXSP,2013-03-29 10:35:00,
2013-03-29 06:40:00,29.1,19.1,30.26,SW,225,0.0,1.1,66,0.00,,,0.00,WUHU21623XXSP,2013-03-29 10:40:00,
2013-03-29 06:45:00,28.9,19.0,30.27,SW,225,0.0,3.6,66,0.00,,,0.00,WUHU21623XXSP,2013-03-29 10:45:00,
2013-03-29 06:50:00,28.9,19.0,30.27,SW,225,5.1,5.1,66,0.00,,,0.00,WUHU21623XXSP,2013-03-29 10:50:00,
2013-03-29 06:55:00,28.8,19.2,30.26,SW,225,0.0,5.1,67,0.00,,,0.00,WUHU21623XXSP,2013-03-29 10:55:00,
2013-03-29 07:00:00,28.6,19.0,30.26,SW,225,0.0,0.0,67,0.00,,,0.00,WUHU21623XXSP,2013-03-29 11:00:00,
2013-03-29 07:05:00,28.6,19.0,30.27,SW,225,0.0,0.0,67,0.00,,,0.00,WUHU21623XXSP,2013-03-29 11:05:00,
2013-03-29 07:10:00,28.6,19.0,30.27,SW,225,0.0,0.0,67,0.00,,,0.00,WUHU21623XXSP,2013-03-29 11:10:00,
2013-03-29 07:15:00,28.2,18.7,30.27,SW,225,0.0,0.0,67,0.00,,,0.00,WUHU21623XXSP,2013-03-29 11:15:00,
2013-03-29 07:20:00,28.2,18.7,30.27,SW,225,0.0,0.0,67,0.00,,,0.00,WUHU21623XXSP,2013-03-29 11:20:00,
2013-03-29 07:25:00,28.2,18.7,30.27,SW,225,0.0,0.0,67,0.00,,,0.00,WUHU21623XXSP,2013-03-29 11:25:00,
2013-03-29 07:30:00,28.0,18.7,30.27,SW,225,0.0,0.0,67,0.00,,,0.00,WUHU21623XXSP,2013-03-29 11:30:00,
2013-03-29 07:35:00,28.0,18.5,30.27,SW,225,0.0,0.0,67,0.00,,,0.00,WUHU21623XXSP,2013-03-29 11:35:00,
2013-03-29 07:40:00,28.0,18.5,30.27,SW,225,0.0,0.0,67,0.00,,,0.00,WUHU21623XXSP,2013-03-29 11:40:00,
2013-03-29 07:45:00,28.0,18.7,30.27,SW,225,0.0,0.0,67,0.00,,,0.00,WUHU21623XXSP,2013-03-29 11:45:00,
2013-03-29 07:50:00,28.2,18.7,30.27,SW,225,0.0,0.0,67,0.00,,,0.00,WUHU21623XXSP,2013-03-29 11:50:00,
2013-03-29 07:55:00,28.2,18.7,30.27,SW,225,0.0,0.0,68,0.00,,,0.00,WUHU21623XXSP,2013-03-29 11:55:00,
2013-03-29 08:00:00,28.2,19.0,30.27,SW,225,0.0,0.0,68,0.00,,,0.00,WUHU21623XXSP,2013-03-29 12:00:00,
2013-03-29 08:05:00,28.2,19.0,30.27,SW,225,0.0,0.0,68,0.00,,,0.00,WUHU21623XXSP,2013-03-29 12:05:00,
2013-03-29 08:10:00,28.4,19.0,30.27,SW,225,0.7,0.7,68,0.00,,,0.00,WUHU21623XXSP,2013-03-29 12:10:00,
2013-03-29 08:15:00,28.8,19.5,30.28,SW,225,0.0,2.0,68,0.00,,,0.00,WUHU21623XXSP,2013-03-29 12:15:00,
2013-03-29 08:20:00,28.8,19.4,30.28,SW,225,0.0,2.0,68,0.00,,,0.00,WUHU21623XXSP,2013-03-29 12:20:00,
2013-03-29 08:25:00,28.9,19.7,30.28,SSW,202,0.0,0.0,68,0.00,,,0.00,WUHU21623XXSP,2013-03-29 12:25:00,
2013-03-29 08:30:00,29.1,19.7,30.27,SSW,202,0.0,0.0,68,0.00,,,0.00,WUHU21623XXSP,2013-03-29 12:30:00,
2013-03-29 08:35:00,29.3,20.0,30.28,SW,225,0.0,2.2,68,0.00,,,0.00,WUHU21623XXSP,2013-03-29 12:35:00,
2013-03-29 08:40:00,29.5,20.2,30.28,SW,225,2.5,2.5,68,0.00,,,0.00,WUHU21623XXSP,2013-03-29 12:40:00,
2013-03-29 08:45:00,30.0,20.5,30.28,SW,225,2.5,2.5,68,0.00,,,0.00,WUHU21623XXSP,2013-03-29 12:45:00,
2013-03-29 08:50:00,30.2,20.8,30.28,SSW,202,0.0,2.5,68,0.00,,,0.00,WUHU21623XXSP,2013-03-29 12:50:00,
2013-03-29 08:55:00,30.6,21.0,30.28,SW,225,0.0,1.6,68,0.00,,,0.00,WUHU21623XXSP,2013-03-29 12:55:00,
2013-03-29 09:00:00,30.9,21.6,30.28,SW,225,0.0,0.0,68,0.00,,,0.00,WUHU21623XXSP,2013-03-29 13:00:00,
2013-03-29 09:05:00,31.1,21.4,30.28,SW,225,4.0,4.0,67,0.00,,,0.00,WUHU21623XXSP,2013-03-29 13:05:00,
2013-03-29 09:10:00,31.3,21.6,30.28,SSW,202,0.0,4.0,67,0.00,,,0.00,WUHU21623XXSP,2013-03-29 13:10:00,
2013-03-29 09:15:00,31.8,22.1,30.28,SSW,202,0.0,4.0,67,0.00,,,0.00,WUHU21623XXSP,2013-03-29 13:15:00,
2013-03-29 09:20:00,31.8,22.1,30.28,SW,225,0.0,0.0,67,0.00,,,0.00,WUHU21623XXSP,2013-03-29 13:20:00,
2013-03-29 09:25:00,32.4,22.6,30.28,SSW,202,0.0,0.7,67,0.00,,,0.00,WUHU21623XXSP,2013-03-29 13:25:00,
2013-03-29 09:30:00,32.7,22.6,30.28,SW,225,0.0,6.0,66,0.00,,,0.00,WUHU21623XXSP,2013-03-29 13:30:00,
2013-03-29 09:35:00,33.1,22.9,30.28,SW,225,3.4,6.0,66,0.00,,,0.00,WUHU21623XXSP,2013-03-29 13:35:00,
2013-03-29 09:40:00,33.4,23.2,30.28,North,0,4.9,4.9,66,0.00,,,0.00,WUHU21623XXSP,2013-03-29 13:40:00,
2013-03-29 09:45:00,34.0,23.0,30.27,SSW,202,0.0,4.9,65,0.00,,,0.00,WUHU21623XXSP,2013-03-29 13:45:00,
2013-03-29 09:50:00,34.3,23.0,30.28,North,0,0.0,6.5,63,0.00,,,0.00,WUHU21623XXSP,2013-03-29 13:50:00,
2013-03-29 09:55:00,34.5,23.2,30.28,North,0,2.9,6.5,63,0.00,,,0.00,WUHU21623XXSP,2013-03-29 13:55:00,
2013-03-29 10:00:00,35.2,23.9,30.28,NNW,337,0.0,2.9,63,0.00,,,0.00,WUHU21623XXSP,2013-03-29 14:00:00,
2013-03-29 10:05:00,35.4,24.1,30.28,NNW,337,4.0,4.0,63,0.00,,,0.00,WUHU21623XXSP,2013-03-29 14:05:00,
2013-03-29 10:10:00,35.8,24.1,30.28,NNW,337,2.9,4.0,62,0.00,,,0.00,WUHU21623XXSP,2013-03-29 14:10:00,
2013-03-29 10:15:00,36.1,24.0,30.28,NNW,337,2.5,7.4,61,0.00,,,0.00,WUHU21623XXSP,2013-03-29 14:15:00,
2013-03-29 10:20:00,36.3,23.8,30.28,North,0,4.9,7.4,60,0.00,,,0.00,WUHU21623XXSP,2013-03-29 14:20:00,
2013-03-29 10:25:00,36.7,24.2,30.28,SSW,202,0.9,5.8,60,0.00,,,0.00,WUHU21623XXSP,2013-03-29 14:25:00,
2013-03-29 10:30:00,37.2,24.2,30.28,NNW,337,5.1,5.1,59,0.00,,,0.00,WUHU21623XXSP,2013-03-29 14:30:00,
2013-03-29 10:35:00,37.4,24.4,30.28,NNW,337,2.9,5.1,59,0.00,,,0.00,WUHU21623XXSP,2013-03-29 14:35:00,
2013-03-29 10:40:00,37.8,24.3,30.27,North,0,1.6,2.9,58,0.00,,,0.00,WUHU21623XXSP,2013-03-29 14:40:00,
2013-03-29 10:45:00,38.3,24.6,30.27,North,0,6.0,6.0,57,0.00,,,0.00,WUHU21623XXSP,2013-03-29 14:45:00,
2013-03-29 10:50:00,38.5,24.5,30.27,NNE,22,0.0,6.0,57,0.00,,,0.00,WUHU21623XXSP,2013-03-29 14:50:00,
2013-03-29 10:55:00,39.0,25.0,30.28,NNW,337,0.0,0.0,57,0.00,,,0.00,WUHU21623XXSP,2013-03-29 14:55:00,
2013-03-29 11:00:00,39.4,24.9,30.28,North,0,0.0,8.1,56,0.00,,,0.00,WUHU21623XXSP,2013-03-29 15:00:00,
2013-03-29 11:05:00,39.7,25.2,30.28,North,0,0.0,8.1,56,0.00,,,0.00,WUHU21623XXSP,2013-03-29 15:05:00,
2013-03-29 11:10:00,40.1,25.1,30.28,North,0,0.0,3.6,55,0.00,,,0.00,WUHU21623XXSP,2013-03-29 15:10:00,
2013-03-29 11:15:00,40.8,25.8,30.28,NE,45,1.3,3.6,55,0.00,,,0.00,WUHU21623XXSP,2013-03-29 15:15:00,
2013-03-29 11:20:00,41.4,26.7,30.28,NE,45,0.0,1.3,56,0.00,,,0.00,WUHU21623XXSP,2013-03-29 15:20:00,
2013-03-29 11:25:00,41.9,26.8,30.27,NNW,337,6.9,6.9,55,0.00,,,0.00,WUHU21623XXSP,2013-03-29 15:25:00,
2013-03-29 11:30:00,42.6,25.8,30.28,North,0,0.0,6.9,51,0.00,,,0.00,WUHU21623XXSP,2013-03-29 15:30:00,
2013-03-29 11:35:00,43.3,26.9,30.28,NNE,22,1.8,4.9,52,0.00,,,0.00,WUHU21623XXSP,2013-03-29 15:35:00,
2013-03-29 11:40:00,43.7,25.8,30.28,SSW,202,0.7,3.6,49,0.00,,,0.00,WUHU21623XXSP,2013-03-29 15:40:00,
2013-03-29 11:45:00,43.9,25.8,30.28,SW,225,0.0,3.4,48,0.00,,,0.00,WUHU21623XXSP,2013-03-29 15:45:00,
2013-03-29 11:50:00,44.2,25.7,30.28,SW,225,0.0,0.0,48,0.00,,,0.00,WUHU21623XXSP,2013-03-29 15:50:00,
2013-03-29 11:55:00,45.0,26.6,30.27,NNW,337,0.0,0.0,49,0.00,,,0.00,WUHU21623XXSP,2013-03-29 15:55:00,
2013-03-29 12:00:00,45.1,26.0,30.28,North,0,0.0,2.9,47,0.00,,,0.00,WUHU21623XXSP,2013-03-29 16:00:00,
2013-03-29 12:05:00,45.1,25.5,30.28,North,0,1.8,2.9,46,0.00,,,0.00,WUHU21623XXSP,2013-03-29 16:05:00,
2013-03-29 12:10:00,45.3,26.2,30.27,North,0,0.0,6.5,47,0.00,,,0.00,WUHU21623XXSP,2013-03-29 16:10:00,
2013-03-29 12:15:00,45.9,26.1,30.27,North,0,6.5,6.5,46,0.00,,,0.00,WUHU21623XXSP,2013-03-29 16:15:00,
2013-03-29 12:20:00,46.2,26.4,30.27,NNE,22,2.5,6.5,46,0.00,,,0.00,WUHU21623XXSP,2013-03-29 16:20:00,
2013-03-29 12:25:00,46.2,25.9,30.27,North,0,3.4,3.4,45,0.00,,,0.00,WUHU21623XXSP,2013-03-29 16:25:00,
2013-03-29 12:30:00,46.8,25.8,30.27,North,0,7.6,7.6,44,0.00,,,0.00,WUHU21623XXSP,2013-03-29 16:30:00,
2013-03-29 12:35:00,47.1,26.2,30.27,NNW,337,4.9,7.6,44,0.00,,,0.00,WUHU21623XXSP,2013-03-29 16:35:00,
2013-03-29 12:40:00,47.3,25.3,30.27,NNW,337,3.4,7.8,42,0.00,,,0.00,WUHU21623XXSP,2013-03-29 16:40:00,
2013-03-29 12:45:00,47.8,25.7,30.26,SW,225,0.0,7.8,42,0.00,,,0.00,WUHU21623XXSP,2013-03-29 16:45:00,
2013-03-29 12:50:00,47.8,25.7,30.26,North,0,0.0,3.6,42,0.00,,,0.00,WUHU21623XXSP,2013-03-29 16:50:00,
2013-03-29 12:55:00,48.4,26.2,30.26,NNE,22,0.0,6.9,42,0.00,,,0.00,WUHU21623XXSP,2013-03-29 16:55:00,
2013-03-29 13:00:00,48.6,25.8,30.26,North,0,2.5,6.9,41,0.00,,,0.00,WUHU21623XXSP,2013-03-29 17:00:00,
2013-03-29 13:05:00,48.7,25.5,30.26,North,0,0.0,2.5,40,0.00,,,0.00,WUHU21623XXSP,2013-03-29 17:05:00,
2013-03-29 13:10:00,48.7,25.5,30.26,SSW,202,2.0,3.8,40,0.00,,,0.00,WUHU21623XXSP,2013-03-29 17:10:00,
2013-03-29 13:15:00,49.3,27.1,30.26,NNW,337,7.8,7.8,42,0.00,,,0.00,WUHU21623XXSP,2013-03-29 17:15:00,
2013-03-29 13:20:00,49.3,25.3,30.26,SW,225,0.0,7.8,39,0.00,,,0.00,WUHU21623XXSP,2013-03-29 17:20:00,
2013-03-29 13:25:00,49.6,26.3,30.26,SSW,202,0.0,5.1,40,0.00,,,0.00,WUHU21623XXSP,2013-03-29 17:25:00,
2013-03-29 13:30:00,49.8,27.0,30.25,NE,45,0.0,5.1,41,0.00,,,0.00,WUHU21623XXSP,2013-03-29 17:30:00,
2013-03-29 13:35:00,50.4,26.9,30.25,NE,45,0.0,3.6,40,0.00,,,0.00,WUHU21623XXSP,2013-03-29 17:35:00,
2013-03-29 13:40:00,50.9,27.4,30.25,NNW,337,6.0,6.0,40,0.00,,,0.00,WUHU21623XXSP,2013-03-29 17:40:00,
2013-03-29 13:45:00,50.5,27.1,30.25,North,0,0.0,6.0,40,0.00,,,0.00,WUHU21623XXSP,2013-03-29 17:45:00,
2013-03-29 13:50:00,50.4,26.2,30.25,SSW,202,0.0,2.9,39,0.00,,,0.00,WUHU21623XXSP,2013-03-29 17:50:00,
2013-03-29 13:55:00,49.8,25.8,30.25,North,0,2.7,2.9,39,0.00,,,0.00,WUHU21623XXSP,2013-03-29 17:55:00,
2013-03-29 14:00:00,49.8,25.8,30.25,NNW,337,1.1,2.9,39,0.00,,,0.00,WUHU21623XXSP,2013-03-29 18:00:00,
2013-03-29 14:05:00,50.0,25.9,30.24,NNW,337,0.0,2.7,39,0.00,,,0.00,WUHU21623XXSP,2013-03-29 18:05:00,
2013-03-29 14:10:00,50.4,26.1,30.24,North,0,0.0,0.0,40,0.00,,,0.00,WUHU21623XXSP,2013-03-29 18:10:00,
2013-03-29 14:15:00,50.5,26.4,30.24,SW,225,0.0,0.0,39,0.00,,,0.00,WUHU21623XXSP,2013-03-29 18:15:00,
2013-03-29 14:20:00,50.7,27.2,30.24,NNE,22,0.0,0.0,40,0.00,,,0.00,WUHU21623XXSP,2013-03-29 18:20:00,
2013-03-29 14:25:00,50.7,25.9,30.24,NNE,22,0.0,3.1,38,0.00,,,0.00,WUHU21623XXSP,2013-03-29 18:25:00,
2013-03-29 14:30:00,51.1,27.6,30.24,NNE,22,0.0,3.1,40,0.00,,,0.00,WUHU21623XXSP,2013-03-29 18:30:00,
2013-03-29 14:35:00,51.4,27.2,30.24,North,0,0.0,0.0,39,0.00,,,0.00,WUHU21623XXSP,2013-03-29 18:35:00,
2013-03-29 14:40:00,52.0,27.7,30.23,North,0,3.1,3.1,38,0.00,,,0.00,WUHU21623XXSP,2013-03-29 18:40:00,
2013-03-29 14:45:00,52.2,27.2,30.23,South,180,0.0,3.1,38,0.00,,,0.00,WUHU21623XXSP,2013-03-29 18:45:00,
2013-03-29 14:50:00,52.2,27.2,30.23,NE,45,0.0,2.9,38,0.00,,,0.00,WUHU21623XXSP,2013-03-29 18:50:00,
2013-03-29 14:55:00,52.0,27.0,30.23,NNE,22,0.0,2.0,38,0.00,,,0.00,WUHU21623XXSP,2013-03-29 18:55:00,
2013-03-29 15:00:00,52.0,26.3,30.23,North,0,2.0,8.5,37,0.00,,,0.00,WUHU21623XXSP,2013-03-29 19:00:00,
2013-03-29 15:05:00,52.0,25.6,30.22,North,0,0.0,8.5,36,0.00,,,0.00,WUHU21623XXSP,2013-03-29 19:05:00,
2013-03-29 15:10:00,52.0,27.0,30.22,North,0,4.0,4.0,38,0.00,,,0.00,WUHU21623XXSP,2013-03-29 19:10:00,
2013-03-29 15:15:00,52.5,25.4,30.22,SSW,202,2.0,4.0,35,0.00,,,0.00,WUHU21623XXSP,2013-03-29 19:15:00,
2013-03-29 15:20:00,52.9,25.8,30.22,NNW,337,0.0,3.4,35,0.00,,,0.00,WUHU21623XXSP,2013-03-29 19:20:00,
2013-03-29 15:25:00,52.7,25.6,30.22,SW,225,0.0,3.4,35,0.00,,,0.00,WUHU21623XXSP,2013-03-29 19:25:00,
2013-03-29 15:30:00,52.9,25.8,30.22,SSW,202,0.0,2.9,35,0.00,,,0.00,WUHU21623XXSP,2013-03-29 19:30:00,
2013-03-29 15:35:00,52.7,26.3,30.22,NE,45,2.5,2.9,36,0.00,,,0.00,WUHU21623XXSP,2013-03-29 19:35:00,
2013-03-29 15:40:00,52.5,26.1,30.22,North,0,4.7,4.7,36,0.00,,,0.00,WUHU21623XXSP,2013-03-29 19:40:00,
2013-03-29 15:45:00,52.7,26.3,30.22,NNW,337,0.0,4.7,36,0.00,,,0.00,WUHU21623XXSP,2013-03-29 19:45:00,
2013-03-29 15:50:00,52.7,26.3,30.21,NNW,337,6.5,6.5,36,0.00,,,0.00,WUHU21623XXSP,2013-03-29 19:50:00,
2013-03-29 15:55:00,52.7,25.6,30.21,North,0,3.1,6.5,35,0.00,,,0.00,WUHU21623XXSP,2013-03-29 19:55:00,
2013-03-29 16:00:00,52.7,26.3,30.21,NNW,337,3.4,5.6,36,0.00,,,0.00,WUHU21623XXSP,2013-03-29 20:00:00,
2013-03-29 16:05:00,52.9,27.1,30.21,NNE,22,4.7,4.7,37,0.00,,,0.00,WUHU21623XXSP,2013-03-29 20:05:00,
2013-03-29 16:10:00,53.2,26.1,30.21,SW,225,0.0,4.7,35,0.00,,,0.00,WUHU21623XXSP,2013-03-29 20:10:00,
2013-03-29 16:15:00,53.6,25.7,30.21,SSW,202,2.5,4.5,34,0.00,,,0.00,WUHU21623XXSP,2013-03-29 20:15:00,
2013-03-29 16:20:00,54.0,26.0,30.21,NNW,337,5.4,5.4,34,0.00,,,0.00,WUHU21623XXSP,2013-03-29 20:20:00,
2013-03-29 16:25:00,54.0,25.3,30.21,North,0,2.2,5.4,33,0.00,,,0.00,WUHU21623XXSP,2013-03-29 20:25:00,
2013-03-29 16:30:00,54.3,25.6,30.21,NNW,337,0.0,3.4,33,0.00,,,0.00,WUHU21623XXSP,2013-03-29 20:30:00,
2013-03-29 16:35:00,54.1,25.5,30.21,North,0,1.8,3.4,33,0.00,,,0.00,WUHU21623XXSP,2013-03-29 20:35:00,
2013-03-29 16:40:00,54.0,24.0,30.21,North,0,3.8,3.8,31,0.00,,,0.00,WUHU21623XXSP,2013-03-29 20:40:00,
2013-03-29 16:45:00,53.4,23.8,30.21,North,0,2.7,3.8,32,0.00,,,0.00,WUHU21623XXSP,2013-03-29 20:45:00,
2013-03-29 16:50:00,53.2,24.0,30.21,NNW,337,2.2,7.4,32,0.00,,,0.00,WUHU21623XXSP,2013-03-29 20:50:00,
2013-03-29 16:55:00,53.8,24.5,30.21,SW,225,0.0,7.4,32,0.00,,,0.00,WUHU21623XXSP,2013-03-29 20:55:00,
2013-03-29 17:00:00,54.0,24.7,30.21,NNW,337,0.0,0.0,32,0.00,,,0.00,WUHU21623XXSP,2013-03-29 21:00:00,
2013-03-29 17:05:00,54.1,24.8,30.21,NNE,22,3.1,3.1,32,0.00,,,0.00,WUHU21623XXSP,2013-03-29 21:05:00,
2013-03-29 17:10:00,54.5,24.4,30.20,NNE,22,0.0,3.1,31,0.00,,,0.00,WUHU21623XXSP,2013-03-29 21:10:00,
2013-03-29 17:15:00,55.0,24.8,30.20,NNE,22,0.0,0.0,31,0.00,,,0.00,WUHU21623XXSP,2013-03-29 21:15:00,
2013-03-29 17:20:00,55.2,25.0,30.20,NNW,337,2.5,2.5,31,0.00,,,0.00,WUHU21623XXSP,2013-03-29 21:20:00,
2013-03-29 17:25:00,55.2,25.0,30.20,NNW,337,0.0,2.5,31,0.00,,,0.00,WUHU21623XXSP,2013-03-29 21:25:00,
2013-03-29 17:30:00,55.6,25.3,30.20,SW,225,0.0,0.0,31,0.00,,,0.00,WUHU21623XXSP,2013-03-29 21:30:00,
2013-03-29 17:35:00,55.2,25.0,30.20,SW,225,0.0,0.0,31,0.00,,,0.00,WUHU21623XXSP,2013-03-29 21:35:00,
2013-03-29 17:40:00,55.2,25.7,30.20,SW,225,0.0,0.0,32,0.00,,,0.00,WUHU21623XXSP,2013-03-29 21:40:00,
2013-03-29 17:45:00,55.0,25.5,30.20,North,0,0.0,0.0,32,0.00,,,0.00,WUHU21623XXSP,2013-03-29 21:45:00,
2013-03-29 17:50:00,54.7,25.3,30.20,NNW,337,0.0,0.0,32,0.00,,,0.00,WUHU21623XXSP,2013-03-29 21:50:00,
2013-03-29 17:55:00,55.2,25.0,30.21,North,0,4.9,7.4,31,0.00,,,0.00,WUHU21623XXSP,2013-03-29 21:55:00,
2013-03-29 18:00:00,55.2,25.0,30.20,NNW,337,5.8,7.4,31,0.00,,,0.00,WUHU21623XXSP,2013-03-29 22:00:00,
2013-03-29 18:05:00,54.5,24.4,30.21,NNW,337,5.8,5.8,31,0.00,,,0.00,WUHU21623XXSP,2013-03-29 22:05:00,
2013-03-29 18:10:00,54.0,24.1,30.20,NNW,337,7.6,8.7,31,0.00,,,0.00,WUHU21623XXSP,2013-03-29 22:10:00,
2013-03-29 18:15:00,53.4,24.0,30.21,NNW,337,7.2,8.7,31,0.00,,,0.00,WUHU21623XXSP,2013-03-29 22:15:00,
2013-03-29 18:20:00,52.7,23.6,30.21,NNW,337,6.9,7.2,32,0.00,,,0.00,WUHU21623XXSP,2013-03-29 22:20:00,
2013-03-29 18:25:00,52.3,23.9,30.20,North,0,0.0,7.2,33,0.00,,,0.00,WUHU21623XXSP,2013-03-29 22:25:00,
2013-03-29 18:30:00,51.8,23.4,30.20,North,0,0.0,5.4,33,0.00,,,0.00,WUHU21623XXSP,2013-03-29 22:30:00,
2013-03-29 18:35:00,51.6,24.0,30.20,NNW,337,6.9,6.9,34,0.00,,,0.00,WUHU21623XXSP,2013-03-29 22:35:00,
2013-03-29 18:40:00,51.1,23.5,30.20,North,0,2.9,7.6,34,0.00,,,0.00,WUHU21623XXSP,2013-03-29 22:40:00,
2013-03-29 18:45:00,50.9,22.8,30.20,North,0,2.9,7.6,34,0.00,,,0.00,WUHU21623XXSP,2013-03-29 22:45:00,
2013-03-29 18:50:00,50.5,23.0,30.20,NNW,337,0.0,2.9,34,0.00,,,0.00,WUHU21623XXSP,2013-03-29 22:50:00,
2013-03-29 18:55:00,49.8,22.7,30.20,NNW,337,0.0,0.0,34,0.00,,,0.00,WUHU21623XXSP,2013-03-29 22:55:00,
2013-03-29 19:00:00,49.6,22.9,30.20,North,0,0.0,0.0,35,0.00,,,0.00,WUHU21623XXSP,2013-03-29 23:00:00,
2013-03-29 19:05:00,49.3,22.6,30.20,NNW,337,7.8,7.8,35,0.00,,,0.00,WUHU21623XXSP,2013-03-29 23:05:00,
2013-03-29 19:10:00,48.9,22.4,30.20,NNW,337,0.0,7.8,35,0.00,,,0.00,WUHU21623XXSP,2013-03-29 23:10:00,
2013-03-29 19:15:00,48.6,22.1,30.20,NNW,337,0.0,7.8,35,0.00,,,0.00,WUHU21623XXSP,2013-03-29 23:15:00,
2013-03-29 19:20:00,48.2,22.3,30.20,NNW,337,0.0,0.0,36,0.00,,,0.00,WUHU21623XXSP,2013-03-29 23:20:00,
2013-03-29 19:25:00,47.8,22.7,30.20,NNW,337,0.0,0.0,37,0.00,,,0.00,WUHU21623XXSP,2013-03-29 23:25:00,
2013-03-29 19:30:00,47.5,22.3,30.20,NNW,337,0.0,0.0,37,0.00,,,0.00,WUHU21623XXSP,2013-03-29 23:30:00,
2013-03-29 19:35:00,47.1,22.0,30.21,NNW,337,2.9,2.9,37,0.00,,,0.00,WUHU21623XXSP,2013-03-29 23:35:00,
2013-03-29 19:40:00,46.8,21.7,30.20,NNW,337,0.0,2.9,37,0.00,,,0.00,WUHU21623XXSP,2013-03-29 23:40:00,
2013-03-29 19:45:00,46.4,22.2,30.20,NNW,337,0.0,0.0,38,0.00,,,0.00,WUHU21623XXSP,2013-03-29 23:45:00,
2013-03-29 19:50:00,46.0,21.7,30.20,NNW,337,0.0,0.0,38,0.00,,,0.00,WUHU21623XXSP,2013-03-29 23:50:00,
2013-03-29 19:55:00,45.7,22.0,30.21,NNW,337,0.0,0.0,39,0.00,,,0.00,WUHU21623XXSP,2013-03-29 23:55:00,
2013-03-29 20:00:00,45.1,21.6,30.21,NNW,337,0.0,0.0,39,0.00,,,0.00,WUHU21623XXSP,2013-03-30 00:00:00,
2013-03-29 20:05:00,45.0,22.1,30.21,NNW,337,0.0,0.0,40,0.00,,,0.00,WUHU21623XXSP,2013-03-30 00:05:00,
2013-03-29 20:10:00,44.2,21.6,30.20,NNW,337,0.0,0.0,41,0.00,,,0.00,WUHU21623XXSP,2013-03-30 00:10:00,
2013-03-29 20:15:00,43.9,21.6,30.21,NNW,337,0.0,0.0,41,0.00,,,0.00,WUHU21623XXSP,2013-03-30 00:15:00,
2013-03-29 20:20:00,43.3,21.1,30.21,NNW,337,0.0,0.0,41,0.00,,,0.00,WUHU21623XXSP,2013-03-30 00:20:00,
2013-03-29 20:25:00,42.6,21.0,30.21,NNW,337,0.0,0.0,42,0.00,,,0.00,WUHU21623XXSP,2013-03-30 00:25:00,
2013-03-29 20:30:00,42.4,21.4,30.21,NNW,337,0.0,0.0,43,0.00,,,0.00,WUHU21623XXSP,2013-03-30 00:30:00,
2013-03-29 20:35:00,41.9,20.9,30.21,NNW,337,0.0,0.0,43,0.00,,,0.00,WUHU21623XXSP,2013-03-30 00:35:00,
2013-03-29 20:40:00,41.2,20.8,30.21,NNW,337,0.0,0.0,44,0.00,,,0.00,WUHU21623XXSP,2013-03-30 00:40:00,
2013-03-29 20:45:00,40.8,20.4,30.21,NNW,337,0.0,0.0,44,0.00,,,0.00,WUHU21623XXSP,2013-03-30 00:45:00,
2013-03-29 20:50:00,40.5,20.6,30.21,NNW,337,0.0,0.0,45,0.00,,,0.00,WUHU21623XXSP,2013-03-30 00:50:00,
2013-03-29 20:55:00,39.9,20.1,30.21,NNW,337,0.0,0.0,45,0.00,,,0.00,WUHU21623XXSP,2013-03-30 00:55:00,
2013-03-29 21:00:00,39.6,19.8,30.21,NNW,337,0.0,0.0,45,0.00,,,0.00,WUHU21623XXSP,2013-03-30 01:00:00,
2013-03-29 21:05:00,39.2,20.0,30.21,NNW,337,0.0,0.0,46,0.00,,,0.00,WUHU21623XXSP,2013-03-30 01:05:00,
2013-03-29 21:10:00,38.8,20.2,30.21,NNW,337,0.0,0.0,47,0.00,,,0.00,WUHU21623XXSP,2013-03-30 01:10:00,
2013-03-29 21:15:00,38.5,20.4,30.21,NNW,337,0.0,0.0,48,0.00,,,0.00,WUHU21623XXSP,2013-03-30 01:15:00,
2013-03-29 21:20:00,38.1,20.1,30.21,NNW,337,0.0,0.0,48,0.00,,,0.00,WUHU21623XXSP,2013-03-30 01:20:00,
2013-03-29 21:25:00,37.8,20.3,30.21,NNW,337,0.0,0.0,49,0.00,,,0.00,WUHU21623XXSP,2013-03-30 01:25:00,
2013-03-29 21:30:00,37.4,20.0,30.21,NNW,337,0.0,0.0,49,0.00,,,0.00,WUHU21623XXSP,2013-03-30 01:30:00,
2013-03-29 21:35:00,37.2,20.3,30.22,NNW,337,0.0,0.0,50,0.00,,,0.00,WUHU21623XXSP,2013-03-30 01:35:00,
2013-03-29 21:40:00,36.7,19.8,30.22,NNW,337,0.0,0.0,50,0.00,,,0.00,WUHU21623XXSP,2013-03-30 01:40:00,
2013-03-29 21:45:00,36.5,19.7,30.22,NNW,337,0.0,0.0,50,0.00,,,0.00,WUHU21623XXSP,2013-03-30 01:45:00,
2013-03-29 21:50:00,36.3,19.5,30.22,NNW,337,0.0,0.0,50,0.00,,,0.00,WUHU21623XXSP,2013-03-30 01:50:00,
2013-03-29 21:55:00,36.0,19.2,30.22,NNW,337,0.0,0.0,50,0.00,,,0.00,WUHU21623XXSP,2013-03-30 01:55:00,
2013-03-29 22:00:00,35.8,19.0,30.22,NNW,337,0.0,0.0,50,0.00,,,0.00,WUHU21623XXSP,2013-03-30 02:00:00,
2013-03-29 22:05:00,35.4,19.1,30.22,NNW,337,0.0,0.0,51,0.00,,,0.00,WUHU21623XXSP,2013-03-30 02:05:00,
2013-03-29 22:10:00,35.2,18.9,30.22,NNW,337,0.0,0.0,51,0.00,,,0.00,WUHU21623XXSP,2013-03-30 02:10:00,
2013-03-29 22:15:00,35.2,18.9,30.22,NNW,337,0.0,0.0,51,0.00,,,0.00,WUHU21623XXSP,2013-03-30 02:15:00,
2013-03-29 22:20:00,34.9,19.0,30.22,NNW,337,0.0,0.0,52,0.00,,,0.00,WUHU21623XXSP,2013-03-30 02:20:00,
2013-03-29 22:25:00,34.5,18.6,30.22,NNW,337,0.0,0.0,52,0.00,,,0.00,WUHU21623XXSP,2013-03-30 02:25:00,
2013-03-29 22:30:00,34.3,18.5,30.22,NNW,337,0.0,0.0,52,0.00,,,0.00,WUHU21623XXSP,2013-03-30 02:30:00,
2013-03-29 22:35:00,34.3,18.5,30.22,NNW,337,0.0,0.0,52,0.00,,,0.00,WUHU21623XXSP,2013-03-30 02:35:00,
2013-03-29 22:40:00,34.2,18.7,30.22,NNW,337,0.0,0.0,53,0.00,,,0.00,WUHU21623XXSP,2013-03-30 02:40:00,
2013-03-29 22:45:00,34.0,18.5,30.22,NNW,337,0.0,0.0,53,0.00,,,0.00,WUHU21623XXSP,2013-03-30 02:45:00,
2013-03-29 22:50:00,33.8,18.4,30.22,NNW,337,0.0,0.0,53,0.00,,,0.00,WUHU21623XXSP,2013-03-30 02:50:00,
2013-03-29 22:55:00,33.6,18.6,30.22,NNW,337,0.0,0.0,54,0.00,,,0.00,WUHU21623XXSP,2013-03-30 02:55:00,
2013-03-29 23:00:00,33.6,18.6,30.21,NNW,337,0.0,0.0,54,0.00,,,0.00,WUHU21623XXSP,2013-03-30 03:00:00,
2013-03-29 23:05:00,33.4,18.5,30.22,NNW,337,0.0,0.0,54,0.00,,,0.00,WUHU21623XXSP,2013-03-30 03:05:00,
2013-03-29 23:10:00,33.1,18.3,30.22,NNW,337,0.0,0.0,54,0.00,,,0.00,WUHU21623XXSP,2013-03-30 03:10:00,
2013-03-29 23:15:00,33.1,18.1,30.21,NNW,337,0.0,0.0,54,0.00,,,0.00,WUHU21623XXSP,2013-03-30 03:15:00,
2013-03-29 23:20:00,32.7,18.4,30.22,NNW,337,0.0,0.0,55,0.00,,,0.00,WUHU21623XXSP,2013-03-30 03:20:00,
2013-03-29 23:25:00,32.7,18.7,30.22,SW,225,0.0,0.0,56,0.00,,,0.00,WUHU21623XXSP,2013-03-30 03:25:00,
2013-03-29 23:30:00,32.9,19.3,30.22,SW,225,0.0,0.0,57,0.00,,,0.00,WUHU21623XXSP,2013-03-30 03:30:00,
2013-03-29 23:35:00,33.1,19.4,30.22,SW,225,0.7,0.7,57,0.00,,,0.00,WUHU21623XXSP,2013-03-30 03:35:00,
2013-03-29 23:40:00,33.4,19.8,30.22,SW,225,0.0,0.7,57,0.00,,,0.00,WUHU21623XXSP,2013-03-30 03:40:00,
2013-03-29 23:45:00,33.6,19.9,30.22,SSW,202,0.0,0.7,57,0.00,,,0.00,WUHU21623XXSP,2013-03-30 03:45:00,
2013-03-29 23:50:00,34.0,20.7,30.22,SSW,202,0.0,3.4,58,0.00,,,0.00,WUHU21623XXSP,2013-03-30 03:50:00,
2013-03-29 23:55:00,34.3,20.6,30.22,SW,225,5.1,5.4,57,0.00,,,0.00,WUHU21623XXSP,2013-03-30 03:55:00,